Location: *
(12.5665°N, 8.3471°E)
Time: 19:10:04
(UTC+00:00)

Lacrosse 5 rocket - Pass Details

Date: 23 September 2019
Orbit: 459 x 639 km, 57.0° (Epoch: 19 October)

Event Time Altitude Azimuth Distance (km) Brightness Sun altitude
Exits shadow 04:37:56 13° 259° (WSW) 1,803 3.3 -10.1°
Maximum altitude 04:39:08 14° 242° (WSW) 1,742 3.3 -9.8°
Drops below altitude 10° 04:41:32 10° 210° (SSW) 2,008 3.9 -9.2°
Sets 04:44:53 0° 185° (S) 2,925 5.0 -8.4°
